ARIANE 5 R/B, 41795

Orbit data source: Space-Track

ARIANE 5 R/B, 41795 is space debris in HEO originally from a launch on Wed, 05 Oct 2016 UTC launched from the French Guiana (FRGUI). Debris objects in space refer to the collection of defunct objects orbiting the Earth. Examples of debris include non-operational satellites, rocket bodies, and fragments generated from explosions, collisions, or faulty payload assembly.

Loading next visibility...
ARIANE 5 R/B details
Identifier
41795, 2016-060C
Orbit
HEO
Last TLE update12 hours ago
Origin
Flag of FRArianespace (FR)
ManufacturerAirbus Safran
MissionSpacecraft
Bus & MotorESC-A, Unknown motor
Mass~5,000 kg wet, ~5,000 kg dry
Launch date (UTC)
2016-10-05 (8 years ago)
Launch vehicleUnknown
Launch site
French Guiana (FRGUI)
Object type
Payload
Rocket body
Debris
Shape & HBRCyl + 1 Nozzle, 7 m
Radar Cross Section41.627 m², Large (>1 m²)

Expand to show TLE details & history

TLE from 12 hours ago
0 ARIANE 5 R/B
1 41795U 16060C   24361.07458112  .00005466  00000-0  99021-3 0  9998
2 41795   5.7477 235.7708 6981078 335.7718   3.3206  2.67399554 73018
Epoch: 2024-12-26T01:47Z
Definitive object data (Epoch: 2024-12-26T01:47:23.808Z)
Latitude0.00001°
Longitude114.01858°
Altitude498.009 km
Speed9.886 km/s
True Right ascension15h 43m 42s
True Declination0° 00' 00"
Sunlit
Object was in daylight at TLE epoch
Visualization TLE readout
Latitude3.8482°
Longitude-108.32541°
Altitude26,902.956 km
Speed2.403 km/s
Apparent Right ascension00h 53m 39s
Apparent Declination-2° 45' 53"
Sunlit
Object is in daylight
Visualization observer readout
Local Sidereal Time12:49:08
Azimuth358.128° N
Elevation-52.834°
Doppler factor1
Orbital elements
Apogee altitude30,863.922 km
Perigee altitude242.813 km
Semi-major axis21,931.504 km
Eccentricity0.6981078
Inclination5.7477°
RAAN235.7708°
Arg. of periapsis335.7718°
True anomaly25.38544°
Mean anomaly3.3206°
Eccentric anomaly10.84962°
Mean motion0.66825 °/min
BSTAR0.00099021
Orbital period538.72 mins
Loading maneuver chart data...
Loading historical data...
Loading historical data...
Loading historical data...
Loading historical data...
Loading historical data...
Loading historical data...
Loading historical data...
Other satellites on launch #60 in the year 2016 (2016-10-05 UTC)

ARIANE 5 R/B Visibility forecast

Observer location: undefined°, undefined

Span
Click to sort rows by Start time (UTC) header in descending order
Start Az.
Max El. time (UTC)
Max El. Az.
Max El.
End time (UTC)
End Az.
468 mins2024-12-26 19:57:27.259Z189.208° SSW2024-12-27 01:33:27.259Z134.441° SE27.898°2024-12-27 03:45:27.259Z126.5° SE
|